When you browse on this site, cookies collect data to enhance your experience and personalize the content and advertising you see.
Visit our Privacy Policy to learn more. By continuing to use the site, you agree to this use of cookies and data.
  • en France
  • Liste des pays
  • À 7 jours
  • Température de l'eau
  • Carte météo
  • Widgets météo
  • user-avatar
    Se connecter

    Météo par heure à Buraydah

    Ce jour, 14 Novembre, Jeudi

    Heure Température Précipitation Vent Pression Humidité
    00:00 +19°C° 0 mm 3 m/s 709 mmHg 61%
    01:00 +19°C° 0 mm 3 m/s 709 mmHg 60%
    02:00 +19°C° 0 mm 3 m/s 708 mmHg 60%
    03:00 +19°C° 0 mm 2 m/s 708 mmHg 60%
    04:00 +19°C° 0 mm 2 m/s 708 mmHg 58%
    05:00 +19°C° 0 mm 2 m/s 709 mmHg 57%
    06:00 +19°C° 0 mm 2 m/s 709 mmHg 55%
    07:00 +20°C° 0 mm 3 m/s 709 mmHg 50%
    08:00 +21°C° 0 mm 4 m/s 710 mmHg 46%
    09:00 +22°C° 0 mm 4 m/s 710 mmHg 41%
    10:00 +25°C° 0 mm 4 m/s 710 mmHg 37%
    11:00 +26°C° 0 mm 4 m/s 710 mmHg 32%
    12:00 +28°C° 0 mm 4 m/s 709 mmHg 28%
    13:00 +28°C° 0 mm 4 m/s 709 mmHg 27%
    14:00 +28°C° 0 mm 3 m/s 708 mmHg 27%
    15:00 +29°C° 0 mm 3 m/s 708 mmHg 26%
    16:00 +28°C° 0 mm 2 m/s 707 mmHg 28%
    17:00 +27°C° 0 mm 2 m/s 707 mmHg 30%
    18:00 +26°C° 0 mm 1 m/s 707 mmHg 32%
    19:00 +26°C° 0 mm 2 m/s 708 mmHg 32%
    20:00 +25°C° 0 mm 3 m/s 708 mmHg 33%
    21:00 +25°C° 0 mm 4 m/s 708 mmHg 33%
    22:00 +23°C° 0 mm 4 m/s 708 mmHg 34%
    23:00 +23°C° 0 mm 4 m/s 708 mmHg 35%

    Demain, 15 Novembre, Vendredi

    Heure Température Précipitation Vent Pression Humidité
    00:00 +22°C° 0 mm 4 m/s 707 mmHg 36%
    01:00 +22°C° 0 mm 4 m/s 707 mmHg 37%
    02:00 +22°C° 0 mm 3 m/s 707 mmHg 37%
    03:00 +23°C° 0 mm 2 m/s 707 mmHg 37%
    04:00 +22°C° 0 mm 3 m/s 707 mmHg 36%
    05:00 +21°C° 0 mm 4 m/s 707 mmHg 36%
    06:00 +21°C° 0 mm 5 m/s 708 mmHg 36%
    07:00 +22°C° 0 mm 5 m/s 708 mmHg 36%
    08:00 +22°C° 0 mm 6 m/s 708 mmHg 36%
    09:00 +22°C° 0 mm 7 m/s 708 mmHg 37%
    10:00 +24°C° 0 mm 7 m/s 708 mmHg 33%
    11:00 +26°C° 0 mm 7 m/s 707 mmHg 30%
    12:00 +27°C° 0 mm 7 m/s 707 mmHg 26%
    13:00 +28°C° 0 mm 7 m/s 706 mmHg 25%
    14:00 +29°C° 0 mm 6 m/s 706 mmHg 23%
    15:00 +30°C° 0 mm 5 m/s 705 mmHg 22%
    16:00 +28°C° 0 mm 5 m/s 705 mmHg 24%
    17:00 +27°C° 0 mm 6 m/s 705 mmHg 26%
    18:00 +26°C° 0 mm 6 m/s 705 mmHg 28%
    19:00 +24°C° 0 mm 6 m/s 705 mmHg 30%
    20:00 +23°C° 0 mm 5 m/s 706 mmHg 33%
    21:00 +23°C° 0 mm 5 m/s 706 mmHg 36%
    22:00 +22°C° 0 mm 5 m/s 706 mmHg 39%
    23:00 +21°C° 0 mm 4 m/s 705 mmHg 41%

    Après-demain, 16 Novembre, Samedi

    Heure Température Précipitation Vent Pression Humidité
    00:00 +20°C° 0 mm 4 m/s 705 mmHg 43%
    01:00 +19°C° 0 mm 3 m/s 705 mmHg 46%
    02:00 +19°C° 0 mm 2 m/s 705 mmHg 48%
    03:00 +19°C° 0 mm 1 m/s 704 mmHg 50%
    04:00 +18°C° 0 mm 2 m/s 704 mmHg 51%
    05:00 +18°C° 0 mm 2 m/s 704 mmHg 51%
    06:00 +18°C° 0 mm 2 m/s 705 mmHg 51%
    07:00 +19°C° 0 mm 3 m/s 705 mmHg 50%
    08:00 +20°C° 0 mm 4 m/s 705 mmHg 48%
    09:00 +21°C° 0 mm 5 m/s 706 mmHg 46%
    10:00 +22°C° 0 mm 4 m/s 705 mmHg 43%
    11:00 +23°C° 0 mm 4 m/s 705 mmHg 40%
    12:00 +25°C° 0 mm 3 m/s 705 mmHg 37%
    13:00 +26°C° 0 mm 3 m/s 705 mmHg 35%
    14:00 +26°C° 0 mm 3 m/s 705 mmHg 33%
    15:00 +27°C° 0 mm 3 m/s 704 mmHg 31%
    16:00 +26°C° 0 mm 3 m/s 704 mmHg 33%
    17:00 +25°C° 0 mm 3 m/s 705 mmHg 35%
    18:00 +24°C° 0 mm 3 m/s 705 mmHg 37%
    19:00 +22°C° 0 mm 4 m/s 705 mmHg 38%
    20:00 +22°C° 0 mm 5 m/s 705 mmHg 39%
    21:00 +21°C° 0 mm 5 m/s 705 mmHg 40%
    22:00 +21°C° 0 mm 6 m/s 705 mmHg 41%
    23:00 +20°C° 0 mm 6 m/s 705 mmHg 43%

    17 Novembre, Dimanche

    Heure Température Précipitation Vent Pression Humidité
    00:00 +19°C° 0 mm 6 m/s 705 mmHg 44%
    01:00 +19°C° 0 mm 5 m/s 705 mmHg 49%
    02:00 +18°C° 0 mm 4 m/s 705 mmHg 54%
    03:00 +18°C° 0 mm 3 m/s 705 mmHg 59%
    04:00 +18°C° 0.1 mm 4 m/s 705 mmHg 63%
    05:00 +17°C° 0.1 mm 4 m/s 706 mmHg 67%
    06:00 +17°C° 0.1 mm 4 m/s 706 mmHg 72%
    07:00 +17°C° 0.2 mm 5 m/s 706 mmHg 70%
    08:00 +17°C° 0.2 mm 5 m/s 706 mmHg 68%
    09:00 +19°C° 0.2 mm 6 m/s 707 mmHg 66%
    10:00 +20°C° 0.1 mm 6 m/s 707 mmHg 57%
    11:00 +22°C° 0.1 mm 7 m/s 706 mmHg 49%
    12:00 +23°C° 0.1 mm 7 m/s 706 mmHg 41%
    13:00 +24°C° 0.1 mm 6 m/s 706 mmHg 37%
    14:00 +26°C° 0.1 mm 5 m/s 706 mmHg 33%
    15:00 +26°C° 0.1 mm 5 m/s 706 mmHg 29%
    16:00 +25°C° 0 mm 5 m/s 706 mmHg 35%
    17:00 +23°C° 0 mm 5 m/s 706 mmHg 41%
    18:00 +21°C° 0 mm 5 m/s 706 mmHg 48%
    19:00 +21°C° 0 mm 4 m/s 707 mmHg 49%
    20:00 +20°C° 0 mm 4 m/s 707 mmHg 50%
    21:00 +20°C° 0 mm 3 m/s 707 mmHg 51%
    22:00 +19°C° 0 mm 3 m/s 707 mmHg 52%
    23:00 +19°C° 0 mm 3 m/s 707 mmHg 53%

    18 Novembre, Lundi

    Heure Température Précipitation Vent Pression Humidité
    00:00 +18°C° 0 mm 2 m/s 707 mmHg 53%
    01:00 +18°C° 0 mm 2 m/s 707 mmHg 55%
    02:00 +17°C° 0 mm 2 m/s 707 mmHg 57%
    03:00 +17°C° 0 mm 2 m/s 706 mmHg 59%
    04:00 +17°C° 0 mm 2 m/s 707 mmHg 59%
    05:00 +17°C° 0 mm 3 m/s 707 mmHg 59%
    06:00 +17°C° 0 mm 3 m/s 707 mmHg 59%
    07:00 +18°C° 0 mm 3 m/s 707 mmHg 56%
    08:00 +19°C° 0 mm 3 m/s 708 mmHg 53%
    09:00 +20°C° 0 mm 3 m/s 708 mmHg 50%
    10:00 +21°C° 0 mm 3 m/s 708 mmHg 49%
    11:00 +22°C° 0 mm 3 m/s 708 mmHg 49%
    12:00 +24°C° 0 mm 3 m/s 708 mmHg 48%
    13:00 +24°C° 0 mm 3 m/s 707 mmHg 47%
    14:00 +24°C° 0 mm 2 m/s 707 mmHg 46%
    15:00 +24°C° 0 mm 2 m/s 707 mmHg 46%
    16:00 +24°C° 0 mm 2 m/s 707 mmHg 46%
    17:00 +24°C° 0 mm 2 m/s 707 mmHg 46%
    18:00 +24°C° 0 mm 2 m/s 707 mmHg 46%
    19:00 +24°C° 0.1 mm 2 m/s 708 mmHg 47%
    20:00 +22°C° 0.1 mm 3 m/s 708 mmHg 48%
    21:00 +22°C° 0.1 mm 4 m/s 708 mmHg 49%
    22:00 +21°C° 0 mm 4 m/s 708 mmHg 51%
    23:00 +21°C° 0 mm 4 m/s 708 mmHg 54%

    19 Novembre, Mardi

    Heure Température Précipitation Vent Pression Humidité
    00:00 +20°C° 0 mm 4 m/s 708 mmHg 56%
    01:00 +20°C° 0.1 mm 4 m/s 708 mmHg 59%
    02:00 +20°C° 0.1 mm 4 m/s 708 mmHg 61%
    03:00 +19°C° 0.1 mm 3 m/s 707 mmHg 63%
    04:00 +19°C° 0.3 mm 4 m/s 708 mmHg 66%
    05:00 +18°C° 0.3 mm 4 m/s 708 mmHg 68%
    06:00 +17°C° 0.3 mm 5 m/s 708 mmHg 70%
    07:00 +17°C° 0 mm 5 m/s 708 mmHg 70%
    08:00 +17°C° 0 mm 5 m/s 708 mmHg 69%
    09:00 +19°C° 0 mm 6 m/s 708 mmHg 69%
    10:00 +20°C° 0 mm 5 m/s 708 mmHg 62%
    11:00 +21°C° 0 mm 5 m/s 708 mmHg 56%
    12:00 +22°C° 0 mm 4 m/s 708 mmHg 49%
    13:00 +23°C° 0.1 mm 4 m/s 708 mmHg 47%
    14:00 +23°C° 0.1 mm 4 m/s 707 mmHg 46%
    15:00 +24°C° 0.1 mm 3 m/s 707 mmHg 44%
    16:00 +22°C° 0.1 mm 4 m/s 707 mmHg 47%
    17:00 +22°C° 0.1 mm 4 m/s 707 mmHg 50%
    18:00 +21°C° 0.1 mm 5 m/s 707 mmHg 53%
    19:00 +21°C° 0.1 mm 5 m/s 707 mmHg 57%
    20:00 +20°C° 0.1 mm 5 m/s 707 mmHg 62%
    21:00 +19°C° 0.1 mm 5 m/s 707 mmHg 66%
    22:00 +19°C° 0.1 mm 4 m/s 707 mmHg 68%
    23:00 +19°C° 0.1 mm 4 m/s 707 mmHg 69%
    Voir plus